Time,TemperatureF,DewpointF,PressureIn,WindDirection,WindDirectionDegrees,WindSpeedMPH,WindSpeedGustMPH,Humidity,HourlyPrecipIn,Conditions,Clouds,dailyrainin,SoftwareType,DateUTC
2013-05-15 00:00:00,59.5,58.7,30.10,SW,218,0.0,0.0,97,0.00,,---,0.00,VWS V14.01,2013-05-15 05:00:00,
2013-05-15 00:05:00,59.5,58.7,30.10,SW,218,0.0,0.0,97,0.00,,---,0.00,VWS V14.01,2013-05-15 05:05:00,
2013-05-15 00:10:00,59.3,58.5,30.10,SW,219,0.0,0.0,97,0.00,,---,0.00,VWS V14.01,2013-05-15 05:10:00,
2013-05-15 00:15:00,59.3,58.5,30.10,SW,218,0.0,0.0,97,0.00,,---,0.00,VWS V14.01,2013-05-15 05:15:00,
2013-05-15 00:20:00,59.3,58.5,30.10,SW,218,0.0,0.0,97,0.00,,---,0.00,VWS V14.01,2013-05-15 05:20:00,
2013-05-15 00:25:00,59.2,58.3,30.10,SW,218,0.0,0.0,97,0.00,,---,0.00,VWS V14.01,2013-05-15 05:25:00,
2013-05-15 00:30:00,59.1,58.2,30.10,SW,219,0.0,0.0,97,0.00,,---,0.00,VWS V14.01,2013-05-15 05:30:00,
2013-05-15 00:35:00,59.1,58.2,30.10,SW,218,0.0,0.0,97,0.00,,---,0.00,VWS V14.01,2013-05-15 05:35:00,
2013-05-15 00:40:00,59.0,58.2,30.10,SW,218,0.0,0.0,97,0.00,,---,0.00,VWS V14.01,2013-05-15 05:40:00,
2013-05-15 00:45:00,58.9,58.0,30.10,SW,218,0.0,0.0,97,0.00,,---,0.00,VWS V14.01,2013-05-15 05:45:00,
2013-05-15 00:50:00,58.8,58.0,30.09,SW,218,0.0,0.0,97,0.00,,---,0.00,VWS V14.01,2013-05-15 05:50:00,
2013-05-15 00:55:00,58.7,57.8,30.09,SW,218,0.0,0.0,97,0.00,,---,0.00,VWS V14.01,2013-05-15 05:55:00,
2013-05-15 01:00:00,58.7,57.8,30.10,SW,218,0.0,0.0,97,0.00,,---,0.00,VWS V14.01,2013-05-15 06:00:00,
2013-05-15 01:05:00,58.7,57.8,30.09,SW,218,0.0,0.0,97,0.00,,---,0.00,VWS V14.01,2013-05-15 06:05:00,
2013-05-15 01:10:00,58.6,57.8,30.09,SW,218,0.0,0.0,97,0.00,,---,0.00,VWS V14.01,2013-05-15 06:10:00,
2013-05-15 01:15:00,58.5,57.7,30.09,SW,218,0.0,0.0,97,0.00,,---,0.00,VWS V14.01,2013-05-15 06:15:00,
2013-05-15 01:20:00,58.4,57.6,30.09,SW,218,0.0,0.0,97,0.00,,---,0.00,VWS V14.01,2013-05-15 06:20:00,
2013-05-15 01:25:00,58.3,57.5,30.08,SW,219,0.0,0.0,97,0.00,,---,0.00,VWS V14.01,2013-05-15 06:25:00,
2013-05-15 01:30:00,58.2,57.4,30.09,SW,219,0.0,0.0,97,0.00,,---,0.00,VWS V14.01,2013-05-15 06:30:00,
2013-05-15 01:35:00,58.1,57.3,30.08,SW,218,0.0,0.0,97,0.00,,---,0.00,VWS V14.01,2013-05-15 06:35:00,
2013-05-15 01:40:00,58.0,57.2,30.08,SW,218,0.0,0.0,97,0.00,,---,0.00,VWS V14.01,2013-05-15 06:40:00,
2013-05-15 01:45:00,57.9,57.1,30.08,SW,218,0.0,0.0,97,0.00,,---,0.00,VWS V14.01,2013-05-15 06:45:00,
2013-05-15 01:50:00,57.7,56.9,30.08,SW,218,0.0,0.0,97,0.00,,---,0.00,VWS V14.01,2013-05-15 06:50:00,
2013-05-15 01:55:00,57.7,56.9,30.08,SW,219,0.0,0.0,97,0.00,,---,0.00,VWS V14.01,2013-05-15 06:55:00,
2013-05-15 02:00:00,57.6,57.0,30.09,SW,218,0.0,0.0,98,0.00,,---,0.00,VWS V14.01,2013-05-15 07:00:00,
2013-05-15 02:05:00,57.6,57.0,30.08,SW,218,0.0,0.0,98,0.00,,---,0.00,VWS V14.01,2013-05-15 07:05:00,
2013-05-15 02:10:00,57.5,56.9,30.08,SW,218,0.0,0.0,98,0.00,,---,0.00,VWS V14.01,2013-05-15 07:10:00,
2013-05-15 02:15:00,57.4,56.8,30.08,SW,218,0.0,0.0,98,0.00,,---,0.00,VWS V14.01,2013-05-15 07:15:00,
2013-05-15 02:20:00,57.4,56.8,30.08,SW,219,0.0,0.0,98,0.00,,---,0.00,VWS V14.01,2013-05-15 07:20:00,
2013-05-15 02:25:00,57.2,56.6,30.08,SW,218,0.0,0.0,98,0.00,,---,0.00,VWS V14.01,2013-05-15 07:25:00,
2013-05-15 02:30:00,57.1,56.5,30.09,SW,219,0.0,0.0,98,0.00,,---,0.00,VWS V14.01,2013-05-15 07:30:00,
2013-05-15 02:35:00,57.0,56.4,30.09,SW,218,0.0,0.0,98,0.00,,---,0.00,VWS V14.01,2013-05-15 07:35:00,
2013-05-15 02:40:00,57.0,56.4,30.09,SW,219,0.0,0.0,98,0.00,,---,0.00,VWS V14.01,2013-05-15 07:40:00,
2013-05-15 02:45:00,57.0,56.4,30.09,SW,218,0.0,0.0,98,0.00,,---,0.00,VWS V14.01,2013-05-15 07:45:00,
2013-05-15 02:50:00,57.0,56.4,30.09,SW,218,0.0,0.0,98,0.00,,---,0.00,VWS V14.01,2013-05-15 07:50:00,
2013-05-15 02:55:00,56.9,56.3,30.09,SW,218,0.0,0.0,98,0.00,,---,0.00,VWS V14.01,2013-05-15 07:55:00,
2013-05-15 03:00:00,56.9,56.3,30.09,SW,218,0.0,0.0,98,0.00,,---,0.00,VWS V14.01,2013-05-15 08:00:00,
2013-05-15 03:05:00,56.9,56.3,30.09,SW,218,0.0,0.0,98,0.00,,---,0.00,VWS V14.01,2013-05-15 08:05:00,
2013-05-15 03:10:00,56.8,56.2,30.10,SW,218,0.0,0.0,98,0.00,,---,0.00,VWS V14.01,2013-05-15 08:10:00,
2013-05-15 03:15:00,56.8,56.2,30.09,SW,218,0.0,0.0,98,0.00,,---,0.00,VWS V14.01,2013-05-15 08:15:00,
2013-05-15 03:20:00,56.8,56.2,30.09,SW,218,0.0,0.0,98,0.00,,---,0.00,VWS V14.01,2013-05-15 08:20:00,
2013-05-15 03:25:00,56.8,56.2,30.09,SW,219,0.0,0.0,98,0.00,,---,0.00,VWS V14.01,2013-05-15 08:25:00,
2013-05-15 03:30:00,56.7,56.1,30.09,SW,219,0.0,0.0,98,0.00,,---,0.00,VWS V14.01,2013-05-15 08:30:00,
2013-05-15 03:35:00,56.7,56.1,30.09,SW,219,0.0,0.0,98,0.00,,---,0.00,VWS V14.01,2013-05-15 08:35:00,
2013-05-15 03:40:00,56.6,56.0,30.10,SW,219,0.0,0.0,98,0.00,,---,0.00,VWS V14.01,2013-05-15 08:40:00,
2013-05-15 03:45:00,56.5,55.9,30.09,SW,218,0.0,0.0,98,0.00,,---,0.00,VWS V14.01,2013-05-15 08:45:00,
2013-05-15 03:50:00,56.6,56.0,30.09,SW,218,0.0,0.0,98,0.00,,---,0.00,VWS V14.01,2013-05-15 08:50:00,
2013-05-15 03:55:00,56.7,56.1,30.09,SW,219,0.0,0.0,98,0.00,,---,0.00,VWS V14.01,2013-05-15 08:55:00,
2013-05-15 04:00:00,56.7,56.1,30.09,SW,219,0.0,0.0,98,0.00,,---,0.00,VWS V14.01,2013-05-15 09:00:00,
2013-05-15 04:05:00,56.5,55.9,30.09,SW,218,0.0,0.0,98,0.00,,---,0.00,VWS V14.01,2013-05-15 09:05:00,
2013-05-15 04:10:00,56.3,55.8,30.09,SW,218,0.0,0.0,98,0.00,,---,0.00,VWS V14.01,2013-05-15 09:10:00,
2013-05-15 10:30:00,80.8,66.1,30.12,ENE,68,0.0,1.0,61,0.00,,---,0.00,VWS V14.01,2013-05-15 15:30:00,
2013-05-15 11:22:00,80.8,66.1,30.12,ENE,68,0.0,1.0,61,0.00,,---,0.00,VWS V14.01,2013-05-15 16:22:00,
2013-05-15 11:27:00,83.8,60.8,30.11,SSW,208,1.0,2.0,46,0.00,,---,0.00,VWS V14.01,2013-05-15 16:27:00,
2013-05-15 11:32:00,83.6,60.0,30.11,SSW,211,1.0,2.0,45,0.00,,---,0.00,VWS V14.01,2013-05-15 16:32:00,
2013-05-15 11:38:00,83.8,61.4,30.11,SSW,208,0.0,1.0,47,0.00,,---,0.00,VWS V14.01,2013-05-15 16:38:00,
2013-05-15 11:43:00,83.9,60.3,30.11,SW,225,0.0,1.0,45,0.00,,---,0.00,VWS V14.01,2013-05-15 16:43:00,
2013-05-15 11:48:00,84.3,61.9,30.11,SSW,204,0.0,2.0,47,0.00,,---,0.00,VWS V14.01,2013-05-15 16:48:00,
2013-05-15 11:53:00,84.5,58.2,30.11,SSW,207,0.0,3.0,41,0.00,,---,0.00,VWS V14.01,2013-05-15 16:53:00,
2013-05-15 11:58:00,84.1,58.5,30.11,WSW,246,0.0,3.0,42,0.00,,---,0.00,VWS V14.01,2013-05-15 16:58:00,
2013-05-15 12:03:00,84.3,58.7,30.10,WSW,243,1.0,3.0,42,0.00,,---,0.00,VWS V14.01,2013-05-15 17:03:00,
2013-05-15 12:08:00,84.3,60.7,30.10,SW,217,1.0,2.0,45,0.00,,---,0.00,VWS V14.01,2013-05-15 17:08:00,
2013-05-15 12:13:00,84.5,60.2,30.10,SSW,211,0.0,2.0,44,0.00,,---,0.00,VWS V14.01,2013-05-15 17:13:00,
2013-05-15 12:18:00,84.5,58.9,30.10,SW,222,0.0,2.0,42,0.00,,---,0.00,VWS V14.01,2013-05-15 17:18:00,
2013-05-15 12:23:00,84.8,62.3,30.10,SW,233,1.0,2.0,47,0.00,,---,0.00,VWS V14.01,2013-05-15 17:23:00,
2013-05-15 12:28:00,85.1,60.8,30.10,SSW,206,0.0,2.0,44,0.00,,---,0.00,VWS V14.01,2013-05-15 17:28:00,
2013-05-15 12:33:00,84.9,59.3,30.10,SW,225,2.0,3.0,42,0.00,,---,0.00,VWS V14.01,2013-05-15 17:33:00,
2013-05-15 12:38:00,84.5,60.2,30.10,SSW,201,0.0,3.0,44,0.00,,---,0.00,VWS V14.01,2013-05-15 17:38:00,
2013-05-15 12:43:00,84.9,59.9,30.09,SW,219,0.0,3.0,43,0.00,,---,0.00,VWS V14.01,2013-05-15 17:43:00,
2013-05-15 12:49:00,85.0,61.3,30.09,SW,225,0.0,3.0,45,0.00,,---,0.00,VWS V14.01,2013-05-15 17:49:00,
2013-05-15 12:54:00,85.4,61.0,30.09,SW,222,0.0,3.0,44,0.00,,---,0.00,VWS V14.01,2013-05-15 17:54:00,
2013-05-15 12:59:00,85.9,60.2,30.09,South,188,1.0,3.0,42,0.00,,---,0.00,VWS V14.01,2013-05-15 17:59:00,
2013-05-15 13:04:00,86.2,61.1,30.08,SSE,158,0.0,0.0,43,0.00,,---,0.00,VWS V14.01,2013-05-15 18:04:00,
2013-05-15 13:09:00,86.3,59.2,30.08,SW,214,0.0,3.0,40,0.00,,---,0.00,VWS V14.01,2013-05-15 18:09:00,
2013-05-15 13:14:00,86.5,62.0,30.08,SW,219,0.0,3.0,44,0.00,,---,0.00,VWS V14.01,2013-05-15 18:14:00,
2013-05-15 13:19:00,86.3,59.2,30.08,SW,223,3.0,3.0,40,0.00,,---,0.00,VWS V14.01,2013-05-15 18:19:00,
2013-05-15 13:24:00,85.9,60.2,30.08,SW,225,0.0,3.0,42,0.00,,---,0.00,VWS V14.01,2013-05-15 18:24:00,
2013-05-15 13:29:00,85.7,60.7,30.08,SSW,211,1.0,3.0,43,0.00,,---,0.00,VWS V14.01,2013-05-15 18:29:00,
2013-05-15 13:34:00,85.9,60.2,30.08,South,188,0.0,0.0,42,0.00,,---,0.00,VWS V14.01,2013-05-15 18:34:00,
2013-05-15 13:39:00,86.7,61.5,30.08,SSE,165,0.0,1.0,43,0.00,,---,0.00,VWS V14.01,2013-05-15 18:39:00,
2013-05-15 13:44:00,87.1,61.2,30.07,SW,225,1.0,2.0,42,0.00,,---,0.00,VWS V14.01,2013-05-15 18:44:00,
2013-05-15 13:50:00,86.3,58.5,30.07,SW,217,0.0,3.0,39,0.00,,---,0.00,VWS V14.01,2013-05-15 18:50:00,
2013-05-15 13:55:00,86.5,61.4,30.07,SW,219,0.0,3.0,43,0.00,,---,0.00,VWS V14.01,2013-05-15 18:55:00,
2013-05-15 14:00:00,86.4,61.9,30.06,SSW,213,0.0,3.0,44,0.00,,---,0.00,VWS V14.01,2013-05-15 19:00:00,
2013-05-15 14:05:00,86.4,60.6,30.06,SW,226,0.0,1.0,42,0.00,,---,0.00,VWS V14.01,2013-05-15 19:05:00,
2013-05-15 14:10:00,86.1,58.3,30.06,SSW,205,1.0,3.0,39,0.00,,---,0.00,VWS V14.01,2013-05-15 19:10:00,
2013-05-15 14:15:00,86.1,61.0,30.06,SSE,155,0.0,3.0,43,0.00,,---,0.00,VWS V14.01,2013-05-15 19:15:00,
2013-05-15 14:20:00,86.4,61.3,30.05,SW,231,2.0,3.0,43,0.00,,---,0.00,VWS V14.01,2013-05-15 19:20:00,
2013-05-15 14:25:00,85.7,62.6,30.05,SW,218,2.0,3.0,46,0.00,,---,0.00,VWS V14.01,2013-05-15 19:25:00,
2013-05-15 14:30:00,85.1,60.8,30.05,SSW,210,0.0,4.0,44,0.00,,---,0.00,VWS V14.01,2013-05-15 19:30:00,
2013-05-15 14:35:00,84.6,59.7,30.05,SSW,211,0.0,3.0,43,0.00,,---,0.00,VWS V14.01,2013-05-15 19:35:00,
2013-05-15 14:40:00,84.7,60.4,30.04,SSW,207,2.0,4.0,44,0.00,,---,0.00,VWS V14.01,2013-05-15 19:40:00,
2013-05-15 14:45:00,84.9,59.9,30.04,SW,231,2.0,4.0,43,0.00,,---,0.00,VWS V14.01,2013-05-15 19:45:00,
2013-05-15 14:50:00,84.6,60.3,30.04,SSW,208,1.0,4.0,44,0.00,,---,0.00,VWS V14.01,2013-05-15 19:50:00,
2013-05-15 14:55:00,84.4,58.8,30.03,SW,221,2.0,4.0,42,0.00,,---,0.00,VWS V14.01,2013-05-15 19:55:00,
2013-05-15 15:00:00,84.3,59.4,30.03,SSW,207,0.0,4.0,43,0.00,,---,0.00,VWS V14.01,2013-05-15 20:00:00,
2013-05-15 15:05:00,85.1,62.6,30.03,SSE,159,0.0,1.0,47,0.00,,---,0.00,VWS V14.01,2013-05-15 20:05:00,
2013-05-15 15:10:00,85.3,60.9,30.03,SSW,209,0.0,2.0,44,0.00,,---,0.00,VWS V14.01,2013-05-15 20:10:00,
2013-05-15 15:15:00,85.2,62.7,30.02,WSW,242,0.0,3.0,47,0.00,,---,0.00,VWS V14.01,2013-05-15 20:15:00,
2013-05-15 15:21:00,85.5,61.1,30.02,SSW,204,0.0,4.0,44,0.00,,---,0.00,VWS V14.01,2013-05-15 20:21:00,
2013-05-15 15:26:00,84.7,61.0,30.02,SSW,199,2.0,4.0,45,0.00,,---,0.00,VWS V14.01,2013-05-15 20:26:00,
2013-05-15 15:31:00,84.2,62.4,30.02,South,181,0.0,4.0,48,0.00,,---,0.00,VWS V14.01,2013-05-15 20:31:00,
2013-05-15 15:36:00,82.8,59.9,30.02,SW,217,0.0,3.0,46,0.00,,---,0.00,VWS V14.01,2013-05-15 20:36:00,
2013-05-15 15:41:00,82.5,59.0,30.01,SSW,205,0.0,4.0,45,0.00,,---,0.00,VWS V14.01,2013-05-15 20:41:00,
2013-05-15 15:46:00,82.7,59.8,30.01,SW,217,0.0,4.0,46,0.00,,---,0.00,VWS V14.01,2013-05-15 20:46:00,
2013-05-15 15:52:00,82.0,58.6,30.02,SSW,205,2.0,4.0,45,0.00,,---,0.00,VWS V14.01,2013-05-15 20:52:00,
2013-05-15 15:57:00,81.4,59.3,30.02,SSW,194,0.0,4.0,47,0.00,,---,0.00,VWS V14.01,2013-05-15 20:57:00,
2013-05-15 16:02:00,81.4,58.0,30.02,SSW,209,1.0,4.0,45,0.00,,---,0.00,VWS V14.01,2013-05-15 21:02:00,
2013-05-15 16:07:00,80.8,56.9,30.02,SSW,208,2.0,4.0,44,0.00,,---,0.00,VWS V14.01,2013-05-15 21:07:00,
2013-05-15 16:12:00,80.7,58.0,30.01,SW,226,2.0,4.0,46,0.00,,---,0.00,VWS V14.01,2013-05-15 21:12:00,
2013-05-15 16:17:00,81.1,60.2,30.02,SSW,207,0.0,4.0,49,0.00,,---,0.00,VWS V14.01,2013-05-15 21:17:00,
2013-05-15 16:22:00,81.1,57.2,30.02,SW,214,0.0,4.0,44,0.00,,---,0.00,VWS V14.01,2013-05-15 21:22:00,
2013-05-15 16:27:00,81.0,58.9,30.01,SSW,211,1.0,4.0,47,0.00,,---,0.00,VWS V14.01,2013-05-15 21:27:00,
2013-05-15 16:32:00,81.3,60.9,30.01,SSW,207,0.0,5.0,50,0.00,,---,0.00,VWS V14.01,2013-05-15 21:32:00,
2013-05-15 16:37:00,81.4,59.8,30.01,SSW,210,1.0,2.0,48,0.00,,---,0.00,VWS V14.01,2013-05-15 21:37:00,
2013-05-15 16:42:00,81.0,58.9,30.01,SSW,212,0.0,3.0,47,0.00,,---,0.00,VWS V14.01,2013-05-15 21:42:00,
2013-05-15 16:48:00,80.8,58.7,30.01,SW,219,3.0,3.0,47,0.00,,---,0.00,VWS V14.01,2013-05-15 21:48:00,
2013-05-15 16:53:00,79.9,60.7,30.01,SW,219,1.0,3.0,52,0.00,,---,0.00,VWS V14.01,2013-05-15 21:53:00,
2013-05-15 16:58:00,79.4,60.3,30.01,SW,224,0.0,4.0,52,0.00,,---,0.00,VWS V14.01,2013-05-15 21:58:00,
2013-05-15 17:03:00,79.1,61.0,30.01,SSW,193,0.0,4.0,54,0.00,,---,0.00,VWS V14.01,2013-05-15 22:03:00,
2013-05-15 17:08:00,78.8,59.7,30.01,SSW,207,1.0,1.0,52,0.00,,---,0.00,VWS V14.01,2013-05-15 22:08:00,
2013-05-15 17:13:00,78.3,59.8,30.01,SW,217,0.0,2.0,53,0.00,,---,0.00,VWS V14.01,2013-05-15 22:13:00,
2013-05-15 17:18:00,77.9,58.3,30.01,SSW,212,0.0,3.0,51,0.00,,---,0.00,VWS V14.01,2013-05-15 22:18:00,
2013-05-15 17:23:00,77.5,60.1,30.01,SSW,210,1.0,3.0,55,0.00,,---,0.00,VWS V14.01,2013-05-15 22:23:00,
2013-05-15 17:28:00,77.3,59.9,30.01,SSW,212,0.0,3.0,55,0.00,,---,0.00,VWS V14.01,2013-05-15 22:28:00,
2013-05-15 17:33:00,77.3,59.9,30.01,SW,219,0.0,3.0,55,0.00,,---,0.00,VWS V14.01,2013-05-15 22:33:00,
2013-05-15 17:38:00,77.4,59.5,30.01,SW,214,0.0,1.0,54,0.00,,---,0.00,VWS V14.01,2013-05-15 22:38:00,
2013-05-15 17:43:00,77.2,58.2,30.00,SSW,212,0.0,4.0,52,0.00,,---,0.00,VWS V14.01,2013-05-15 22:43:00,
2013-05-15 17:48:00,76.9,58.0,30.00,SSW,205,0.0,4.0,52,0.00,,---,0.00,VWS V14.01,2013-05-15 22:48:00,
2013-05-15 17:53:00,76.3,57.9,30.00,SSW,193,0.0,4.0,53,0.00,,---,0.00,VWS V14.01,2013-05-15 22:53:00,
2013-05-15 17:58:00,75.8,58.0,30.00,SE,145,0.0,4.0,54,0.00,,---,0.00,VWS V14.01,2013-05-15 22:58:00,
2013-05-15 18:03:00,75.3,58.0,30.00,South,172,0.0,0.0,55,0.00,,---,0.00,VWS V14.01,2013-05-15 23:03:00,
2013-05-15 18:08:00,74.9,59.6,30.00,SSW,207,0.0,0.0,59,0.00,,---,0.00,VWS V14.01,2013-05-15 23:08:00,
2013-05-15 18:14:00,74.4,57.2,29.99,SW,218,0.0,2.0,55,0.00,,---,0.00,VWS V14.01,2013-05-15 23:14:00,
2013-05-15 18:19:00,74.1,57.4,29.99,SSW,200,0.0,2.0,56,0.00,,---,0.00,VWS V14.01,2013-05-15 23:19:00,
2013-05-15 18:24:00,74.1,57.4,29.98,SSW,198,0.0,2.0,56,0.00,,---,0.00,VWS V14.01,2013-05-15 23:24:00,
2013-05-15 18:29:00,74.3,59.1,29.98,SSW,207,0.0,2.0,59,0.00,,---,0.00,VWS V14.01,2013-05-15 23:29:00,
2013-05-15 18:34:00,74.2,57.5,29.98,SSW,208,0.0,1.0,56,0.00,,---,0.00,VWS V14.01,2013-05-15 23:34:00,
2013-05-15 18:39:00,74.0,57.3,29.98,South,177,0.0,1.0,56,0.00,,---,0.00,VWS V14.01,2013-05-15 23:39:00,
2013-05-15 18:44:00,73.9,58.2,29.98,South,178,0.0,1.0,58,0.00,,---,0.00,VWS V14.01,2013-05-15 23:44:00,
2013-05-15 18:49:00,73.7,58.5,29.98,South,178,0.0,1.0,59,0.00,,---,0.00,VWS V14.01,2013-05-15 23:49:00,
2013-05-15 18:54:00,73.5,57.8,29.98,SSW,207,0.0,2.0,58,0.00,,---,0.00,VWS V14.01,2013-05-15 23:54:00,
2013-05-15 19:00:00,73.2,57.5,29.98,SSW,210,0.0,2.0,58,0.00,,---,0.00,VWS V14.01,2013-05-16 00:00:00,
2013-05-15 19:05:00,72.9,58.7,29.98,SSW,210,0.0,0.0,61,0.00,,---,0.00,VWS V14.01,2013-05-16 00:05:00,
2013-05-15 19:10:00,72.4,60.0,29.98,SSW,210,0.0,0.0,65,0.00,,---,0.00,VWS V14.01,2013-05-16 00:10:00,
2013-05-15 19:15:00,71.4,59.5,29.98,SSW,211,0.0,1.0,66,0.00,,---,0.00,VWS V14.01,2013-05-16 00:15:00,
2013-05-15 19:20:00,70.8,59.7,29.98,SSW,211,0.0,1.0,68,0.00,,---,0.00,VWS V14.01,2013-05-16 00:20:00,
2013-05-15 19:25:00,70.1,59.9,29.98,SSW,211,0.0,1.0,70,0.00,,---,0.00,VWS V14.01,2013-05-16 00:25:00,
2013-05-15 19:30:00,69.4,59.6,29.97,SSW,211,0.0,1.0,71,0.00,,---,0.00,VWS V14.01,2013-05-16 00:30:00,
2013-05-15 19:35:00,68.5,59.1,29.98,SSW,211,0.0,0.0,72,0.00,,---,0.00,VWS V14.01,2013-05-16 00:35:00,
2013-05-15 19:40:00,67.9,58.9,29.97,SSW,210,0.0,0.0,73,0.00,,---,0.00,VWS V14.01,2013-05-16 00:40:00,
2013-05-15 19:45:00,67.5,59.3,29.97,SSW,210,0.0,0.0,75,0.00,,---,0.00,VWS V14.01,2013-05-16 00:45:00,
2013-05-15 19:50:00,67.0,58.8,29.97,SSW,211,0.0,0.0,75,0.00,,---,0.00,VWS V14.01,2013-05-16 00:50:00,
2013-05-15 19:55:00,66.6,59.2,29.97,SSW,211,0.0,0.0,77,0.00,,---,0.00,VWS V14.01,2013-05-16 00:55:00,
2013-05-15 20:00:00,66.1,58.7,29.97,SSW,211,0.0,0.0,77,0.00,,---,0.00,VWS V14.01,2013-05-16 01:00:00,
2013-05-15 20:05:00,65.8,58.8,29.97,SSW,211,0.0,0.0,78,0.00,,---,0.00,VWS V14.01,2013-05-16 01:05:00,
2013-05-15 20:10:00,65.5,58.5,29.97,SSW,211,0.0,0.0,78,0.00,,---,0.00,VWS V14.01,2013-05-16 01:10:00,
2013-05-15 20:16:00,65.3,58.6,29.97,SSW,211,0.0,0.0,79,0.00,,---,0.00,VWS V14.01,2013-05-16 01:16:00,
2013-05-15 20:21:00,65.3,59.0,29.97,SSW,211,0.0,0.0,80,0.00,,---,0.00,VWS V14.01,2013-05-16 01:21:00,
2013-05-15 20:26:00,65.1,59.1,29.97,SSW,211,0.0,0.0,81,0.00,,---,0.00,VWS V14.01,2013-05-16 01:26:00,
2013-05-15 20:31:00,65.0,58.7,29.97,SSW,211,0.0,0.0,80,0.00,,---,0.00,VWS V14.01,2013-05-16 01:31:00,
2013-05-15 20:36:00,65.0,59.0,29.97,SSW,211,0.0,0.0,81,0.00,,---,0.00,VWS V14.01,2013-05-16 01:36:00,
2013-05-15 20:41:00,65.1,59.5,29.97,SSW,210,0.0,0.0,82,0.00,,---,0.00,VWS V14.01,2013-05-16 01:41:00,
2013-05-15 20:46:00,64.9,59.3,29.97,SSW,211,0.0,0.0,82,0.00,,---,0.00,VWS V14.01,2013-05-16 01:46:00,
2013-05-15 20:51:00,64.6,59.0,29.97,SSW,210,0.0,0.0,82,0.00,,---,0.00,VWS V14.01,2013-05-16 01:51:00,
2013-05-15 20:56:00,64.5,58.9,29.97,SSW,211,0.0,0.0,82,0.00,,---,0.00,VWS V14.01,2013-05-16 01:56:00,
2013-05-15 21:01:00,64.4,59.1,29.98,SSW,211,0.0,0.0,83,0.00,,---,0.00,VWS V14.01,2013-05-16 02:01:00,
2013-05-15 21:06:00,64.3,59.4,29.98,SSW,211,0.0,0.0,84,0.00,,---,0.00,VWS V14.01,2013-05-16 02:06:00,
2013-05-15 21:11:00,64.3,59.4,29.97,SSW,211,0.0,0.0,84,0.00,,---,0.00,VWS V14.01,2013-05-16 02:11:00,
2013-05-15 21:16:00,64.3,59.7,29.97,SSW,211,0.0,0.0,85,0.00,,---,0.00,VWS V14.01,2013-05-16 02:16:00,
2013-05-15 21:21:00,64.3,59.7,29.97,SSW,211,0.0,0.0,85,0.00,,---,0.00,VWS V14.01,2013-05-16 02:21:00,
2013-05-15 21:26:00,64.3,60.0,29.97,SSW,211,0.0,0.0,86,0.00,,---,0.00,VWS V14.01,2013-05-16 02:26:00,
2013-05-15 21:32:00,64.4,60.1,29.97,SSW,211,0.0,0.0,86,0.00,,---,0.00,VWS V14.01,2013-05-16 02:32:00,
2013-05-15 21:37:00,64.5,60.5,29.97,SSW,211,0.0,0.0,87,0.00,,---,0.00,VWS V14.01,2013-05-16 02:37:00,
2013-05-15 21:42:00,64.5,60.5,29.97,SSW,211,0.0,0.0,87,0.00,,---,0.00,VWS V14.01,2013-05-16 02:42:00,
2013-05-15 21:47:00,64.4,60.8,29.97,SSW,210,0.0,0.0,88,0.00,,---,0.00,VWS V14.01,2013-05-16 02:47:00,
2013-05-15 21:52:00,64.4,60.8,29.97,SSW,211,0.0,0.0,88,0.00,,---,0.00,VWS V14.01,2013-05-16 02:52:00,
2013-05-15 21:57:00,64.4,61.1,29.97,SSW,210,0.0,0.0,89,0.00,,---,0.00,VWS V14.01,2013-05-16 02:57:00,
2013-05-15 22:02:00,64.4,61.1,29.97,SSW,211,0.0,0.0,89,0.00,,---,0.00,VWS V14.01,2013-05-16 03:02:00,
2013-05-15 22:07:00,64.4,61.1,29.97,SSW,211,0.0,0.0,89,0.00,,---,0.00,VWS V14.01,2013-05-16 03:07:00,
2013-05-15 22:13:00,64.3,61.3,29.97,SSW,212,0.0,0.0,90,0.00,,---,0.00,VWS V14.01,2013-05-16 03:13:00,
2013-05-15 22:18:00,64.3,61.3,29.97,SSW,211,0.0,0.0,90,0.00,,---,0.00,VWS V14.01,2013-05-16 03:18:00,
2013-05-15 22:23:00,64.3,61.3,29.97,SSW,211,0.0,0.0,90,0.00,,---,0.00,VWS V14.01,2013-05-16 03:23:00,
2013-05-15 22:28:00,64.3,61.6,29.97,SSW,211,0.0,0.0,91,0.00,,---,0.00,VWS V14.01,2013-05-16 03:28:00,
2013-05-15 22:33:00,64.3,61.6,29.97,SSW,211,0.0,0.0,91,0.00,,---,0.00,VWS V14.01,2013-05-16 03:33:00,
2013-05-15 22:38:00,64.3,61.6,29.96,SSW,211,0.0,0.0,91,0.00,,---,0.00,VWS V14.01,2013-05-16 03:38:00,
2013-05-15 22:43:00,64.3,61.6,29.96,SSW,211,0.0,0.0,91,0.00,,---,0.00,VWS V14.01,2013-05-16 03:43:00,
2013-05-15 22:48:00,64.3,61.9,29.96,SSW,211,0.0,0.0,92,0.00,,---,0.00,VWS V14.01,2013-05-16 03:48:00,
2013-05-15 22:53:00,64.3,61.9,29.96,SSW,211,0.0,0.0,92,0.00,,---,0.00,VWS V14.01,2013-05-16 03:53:00,
2013-05-15 22:58:00,64.3,61.9,29.97,SSW,211,0.0,0.0,92,0.00,,---,0.00,VWS V14.01,2013-05-16 03:58:00,
2013-05-15 23:01:00,64.3,61.9,29.97,SSW,211,0.0,0.0,92,0.00,,---,0.00,VWS V14.01,2013-05-16 04:01:00,
2013-05-15 23:06:00,64.4,62.0,29.97,SSW,211,0.0,0.0,92,0.00,,---,0.00,VWS V14.01,2013-05-16 04:06:00,
2013-05-15 23:11:00,64.4,62.0,29.97,SSW,211,0.0,0.0,92,0.00,,---,0.00,VWS V14.01,2013-05-16 04:11:00,
2013-05-15 23:16:00,64.4,62.3,29.97,SSW,211,0.0,0.0,93,0.00,,---,0.00,VWS V14.01,2013-05-16 04:16:00,
2013-05-15 23:21:00,64.5,62.4,29.97,SSW,211,0.0,0.0,93,0.00,,---,0.00,VWS V14.01,2013-05-16 04:21:00,
2013-05-15 23:26:00,64.6,62.5,29.97,SSW,211,0.0,0.0,93,0.00,,---,0.00,VWS V14.01,2013-05-16 04:26:00,
2013-05-15 23:31:00,64.6,62.5,29.97,SSW,211,0.0,0.0,93,0.00,,---,0.00,VWS V14.01,2013-05-16 04:31:00,
2013-05-15 23:36:00,64.8,63.0,29.96,SSW,211,0.0,0.0,94,0.00,,---,0.00,VWS V14.01,2013-05-16 04:36:00,
2013-05-15 23:41:00,64.8,63.0,29.96,SSW,212,0.0,0.0,94,0.00,,---,0.00,VWS V14.01,2013-05-16 04:41:00,
2013-05-15 23:46:00,64.8,63.0,29.97,SSW,211,0.0,0.0,94,0.00,,---,0.00,VWS V14.01,2013-05-16 04:46:00,
2013-05-15 23:51:00,64.8,63.0,29.97,SSW,211,0.0,0.0,94,0.00,,---,0.00,VWS V14.01,2013-05-16 04:51:00,
2013-05-15 23:56:00,64.8,63.0,29.96,SSW,211,0.0,0.0,94,0.00,,---,0.00,VWS V14.01,2013-05-16 04:56:00,